Texarkana, AR

12:26 AM CDT on September 01, 2016 (GMT -0500)
Texarkana Regional-Webb

Weather History for KTXK - August, 2013

Change the Weather History Date:

Saturday, August 17, 2013

  Actual Average Record
Temperature  
Mean Temperature 73 °F 82 °F  
Max Temperature 85 °F 94 °F 107 °F (1939)
Min Temperature 61 °F 71 °F 54 °F (1992)
Degree Days  
Heating Degree Days 0 0  
Month to date heating degree days 0 0  
Since 1 June heating degree days 0 0  
Since 1 July heating degree days 0 0  
Cooling Degree Days 8 17  
Month to date cooling degree days 309 304  
Year to date cooling degree days 1556 1564  
Since 1 June cooling degree days 1258 1244  
Growing Degree Days 22 (Base 50)    
Moisture  
Dew Point 61 °F    
Average Humidity 65    
Maximum Humidity 90    
Minimum Humidity 40    
Precipitation  
Precipitation 0.00 in 0.08 in 2.32 in (1942)
Month to date precipitation 0.27 1.49  
Year to date precipitation 19.58 30.00  
Snow  
Snow 0.00 in - - ()
Month to date snowfall 0.0  
Since 1 June snowfall 0.0  
Since 1 July snowfall 0.0  
Snow Depth 0.00 in    
Sea Level Pressure  
Sea Level Pressure 30.04 in    
Wind  
Wind Speed 4 mph (NNE)    
Max Wind Speed 16 mph    
Max Gust Speed 21 mph    
Visibility 10 miles    
Events      
T = Trace of Precipitation, MM = Missing Value Source: NWS Daily Summary

Daily Weather History Graph

Daily Weather History Graph

Search for Another Location

Airport or City:

Trip Planner

Search our weather history database for the weather conditions in past years. The results will help you decide how hot, cold, wet, or windy it might be!

Date:

Astronomy

Aug. 17, 2013 Rise Set
Actual Time 6:39 AM CDT 7:59 PM CDT
Civil Twilight 6:13 AM CDT 8:25 PM CDT
Nautical Twilight 5:42 AM CDT 8:56 PM CDT
Astronomical Twilight 5:10 AM CDT 9:28 PM CDT
Moon 5:10 PM CDT (8/17) 2:49 AM CDT (8/17)
Length of Visible Light 14h 11m
Length of Day
13h 19m
Waxing Gibbous, 84% of the Moon is Illuminated
Aug 17
Waxing Gibbous
Aug 20
Full
Aug 28
Last Quarter
Sep 5
New
Sep 12
First Quarter

Hourly Weather History & Observations

Time (CDT) Temp. Heat Index Dew Point Humidity Pressure Visibility Wind Dir Wind Speed Gust Speed Precip Events Conditions
12:53 AM 63.0 °F - 59.0 °F 87% 30.08 in 10.0 mi Calm Calm - N/A   Clear
1:53 AM 62.1 °F - 57.9 °F 86% 30.07 in 10.0 mi Calm Calm - N/A   Clear
2:53 AM 63.0 °F - 59.0 °F 87% 30.06 in 10.0 mi NNW 4.6 mph - N/A   Clear
3:53 AM 62.1 °F - 59.0 °F 90% 30.06 in 10.0 mi North 3.5 mph - N/A   Clear
4:53 AM 61.0 °F - 57.9 °F 90% 30.05 in 9.0 mi NNW 4.6 mph - N/A   Clear
5:45 AM 60.8 °F - 57.2 °F 88% 30.06 in 9.0 mi North 3.5 mph - N/A   Clear
5:53 AM 61.0 °F - 57.9 °F 90% 30.05 in 9.0 mi North 3.5 mph - N/A   Clear
6:53 AM 61.0 °F - 57.9 °F 90% 30.06 in 7.0 mi Calm Calm - N/A   Clear
7:53 AM 64.0 °F - 60.1 °F 87% 30.07 in 9.0 mi North 4.6 mph - N/A   Clear
8:53 AM 69.1 °F - 61.0 °F 75% 30.07 in 10.0 mi North 6.9 mph - N/A   Clear
9:53 AM 72.0 °F - 63.0 °F 73% 30.08 in 10.0 mi NE 6.9 mph - N/A   Partly Cloudy
10:45 AM 75.2 °F - 64.4 °F 69% 30.08 in 10.0 mi NE 6.9 mph - N/A   Mostly Cloudy
10:53 AM 77.0 °F - 64.0 °F 64% 30.07 in 9.0 mi Variable 6.9 mph - N/A   Mostly Cloudy
11:22 AM 78.8 °F - 64.4 °F 61% 30.09 in 10.0 mi ENE 6.9 mph - N/A   Partly Cloudy
11:53 AM 80.1 °F 81.1 °F 61.0 °F 52% 30.07 in 10.0 mi NNE 8.1 mph - N/A   Mostly Cloudy
12:53 PM 81.0 °F 81.6 °F 60.1 °F 49% 30.05 in 10.0 mi NE 8.1 mph - N/A   Scattered Clouds
1:53 PM 82.9 °F 82.8 °F 59.0 °F 44% 30.04 in 10.0 mi NNE 6.9 mph 17.3 mph N/A   Scattered Clouds
2:53 PM 82.0 °F 82.4 °F 60.1 °F 47% 30.02 in 10.0 mi East 8.1 mph 17.3 mph N/A   Scattered Clouds
3:53 PM 84.9 °F 85.0 °F 61.0 °F 44% 30.00 in 10.0 mi NE 9.2 mph - N/A   Clear
4:53 PM 84.0 °F 83.5 °F 57.9 °F 41% 29.99 in 10.0 mi NNE 6.9 mph - N/A   Partly Cloudy
5:15 PM 84.2 °F 83.5 °F 57.2 °F 40% 30.01 in 10.0 mi ENE 6.9 mph - N/A   Scattered Clouds
5:53 PM 82.9 °F 82.8 °F 59.0 °F 44% 30.00 in 10.0 mi Variable 3.5 mph - N/A   Scattered Clouds
6:53 PM 82.0 °F 82.7 °F 61.0 °F 49% 29.99 in 10.0 mi East 5.8 mph - N/A   Clear
7:53 PM 78.1 °F - 63.0 °F 60% 30.00 in 10.0 mi Calm Calm - N/A   Clear
8:53 PM 72.0 °F - 63.0 °F 73% 30.01 in 10.0 mi Calm Calm - N/A   Clear
9:53 PM 71.1 °F - 63.0 °F 75% 30.02 in 10.0 mi Calm Calm - N/A   Clear
10:53 PM 72.0 °F - 64.0 °F 76% 30.03 in 9.0 mi Calm Calm - N/A   Clear
11:53 PM 70.0 °F - 64.0 °F 81% 30.04 in 9.0 mi Calm Calm - N/A   Clear